Regional Weather Roundup
Issued by NWS

Home | Current Version | Previous Version | Text Only | Print | Product List | Glossary Off
Versions: 1 2 3 4 5 6 7 8 9 10 11 12 13 14 15 16 17 18 19 20 21 22 23 24 25 26 27 28 29 30 31 32 33 34 35 36 37 38 39 40 41 42 43 44 45 46 47 48 49 50

000
ASUS43 KFSD 191702
RWRSD

WEATHER ROUNDUP FOR SOUTH DAKOTA
NATIONAL WEATHER SERVICE SIOUX FALLS SD
1200 PM CDT SUN OCT 19 2014

NOTE: "FAIR" INDICATES FEW OR NO CLOUDS BELOW 12,000 FEET WITH NO
SIGNIFICANT WEATHER AND/OR OBSTRUCTIONS TO VISIBILITY.


SDZ001>005-009-010-012>017-191800-
NORTHWEST AND NORTH CENTRAL SOUTH DAKOTA

CITY           SKY/WX    TMP DP  RH WIND       PRES   REMARKS
FAITH            N/A     65  42  43 NW10      30.00
MOBRIDGE       SUNNY     64  44  48 NW12      29.92S
$$

SDZ012>016-024>037-041>051-057-063-072>074-191800-
SOUTHWEST AND SOUTH CENTRAL SOUTH DAKOTA

CITY           SKY/WX    TMP DP  RH WIND       PRES   REMARKS
RAPID CTY ARPT SUNNY     68  40  35 N9        30.06S
PIERRE         SUNNY     66  43  43 W12       29.96S
CUSTER         SUNNY     64  30  27 CALM      30.14S
ELLSWORTH AFB  SUNNY     67  40  36 N10       30.06S
PHILIP         SUNNY     71  40  32 W10       30.00F
PINE RIDGE     SUNNY     62  43  49 CALM      30.07S
SPEARFISH      FAIR      63  39  42 NW8       30.10S
WINNER         FAIR      71  41  33 NW8       29.98S
$$

SDZ004>011-016>023-039-040-191800-
NORTHEAST SOUTH DAKOTA

CITY           SKY/WX    TMP DP  RH WIND       PRES   REMARKS
ABERDEEN       SUNNY     66  45  46 NW9       29.89S
WATERTOWN      SUNNY     62  43  49 W14       29.88S
SISSETON         N/A     68  43  40 NW15      29.83S
$$

SDZ017-020-022-023-036>040-048>070-191800-
SOUTHEAST SOUTH DAKOTA

CITY           SKY/WX    TMP DP  RH WIND       PRES   REMARKS
SIOUX FALLS    MOSUNNY   62  45  53 W12       29.92F
HURON          SUNNY     67  42  40 NW10      29.91S
CHAMBERLAIN    SUNNY     65  44  46 W7        29.95F
MITCHELL       SUNNY     68  44  42 W7        29.93S
YANKTON        SUNNY     61  46  59 W9        29.95S
$$

ABBREVIATIONS USED IN REMARKS
   TC - TEMPERATURE IN CELSIUS
  WCI - WIND CHILL INDEX
   HX - HEAT INDEX
  VSB - VISIBILITY



USA.gov is the U.S. government's official web portal to all federal, state and local government web resources and services.